Back to catalog

STARLINK-35946

AliveCommunicationsVLEO
NORAD 66522·PAYLOAD·🇺🇸 United States

Launched Nov 19, 2025 from Cape Canaveral Space Force Station

Loading…

Next Passes (next 24 hours)

TLE

FreshSource: CelesTrak SupGP

Epoch: Sep 15, 2026, 02:46 UTC

1 66522C 25265G   26258.11576389  .00012057  00000+0  43659-3 0  2586
2 66522  43.0022 288.4222 0001206 267.6396 344.3316 15.27580506    14

Track STARLINK-35946 in real time with AllMySat

Download on the App Store